Location: Helsinki
(60.1699°N, 24.9384°E)
Time: 10:31:46
(UTC+02:00)

KKS-1 - Visible Passes

Search period start: 09 December 2023 00:00
Search period end: 19 December 2023 00:00
Orbit: 629 x 643 km, 98.2° (Epoch: 08 December)

Date Brightness Start Highest point End Pass type
(mag) Time Alt. Az. Time Alt. Az. Time Alt. Az.
10 Dec ? 07:30:13 10° ENE 07:31:47 12° NE 07:33:22 10° NNE visible
11 Dec ? 07:51:15 10° ENE 07:53:44 15° NE 07:56:14 10° N visible
12 Dec ? 08:12:37 10° E 08:15:44 19° NE 08:18:52 10° N visible
14 Dec ? 07:23:28 10° NE 07:24:34 11° NE 07:25:40 10° NNE visible
15 Dec ? 07:44:16 10° ENE 07:46:30 14° NE 07:48:44 10° N visible
16 Dec ? 08:05:32 10° E 08:08:28 18° NE 08:11:24 10° N visible
